UTA7775 USRO-URSS

Flight info

Callsign UTA7775
Flight time N/A
Altitude 34000
Route DINOL2G DINOL T797 ANIKI T764 GITEK T691 UROBO G128 ST G900 SM B950 AG AG1K
Aircraft B738/M-SDE2E3FGHIRWXY/LB1

Departure

Time 2026-04-17 13:24
Airport Noyabrsk Airport (USRO)

Arrival

Time N/A
Airport Sochi International Airport (URSS)
Time Latitude Longitude Altitude Speed Heading
2026-04-17 13:00 63.18179 75.27238 456 ft 0 kts 114°
2026-04-17 13:16 63.18179 75.27239 459 ft 0 kts 114°
2026-04-17 13:16 63.18172 75.27279 457 ft 3 kts 106°
2026-04-17 13:17 63.18186 75.27325 453 ft 5 kts 44°
2026-04-17 13:17 63.18241 75.27350 455 ft 7 kts 330°
2026-04-17 13:17 63.18270 75.27259 454 ft 7 kts 295°
2026-04-17 13:17 63.18295 75.27137 455 ft 10 kts 294°
2026-04-17 13:18 63.18322 75.27003 454 ft 10 kts 294°
2026-04-17 13:18 63.18365 75.26900 456 ft 9 kts 342°
2026-04-17 13:18 63.18426 75.26933 456 ft 9 kts 24°
2026-04-17 13:18 63.18487 75.26994 455 ft 10 kts 24°
2026-04-17 13:19 63.18556 75.27065 454 ft 11 kts 25°
2026-04-17 13:19 63.18625 75.27134 452 ft 11 kts 25°
2026-04-17 13:19 63.18708 75.27221 451 ft 15 kts 25°
2026-04-17 13:19 63.18798 75.27314 453 ft 14 kts 25°
2026-04-17 13:20 63.18884 75.27402 452 ft 13 kts 24°
2026-04-17 13:20 63.18967 75.27487 451 ft 13 kts 25°
2026-04-17 13:20 63.19048 75.27571 450 ft 12 kts 25°
2026-04-17 13:20 63.19121 75.27646 448 ft 11 kts 24°
2026-04-17 13:21 63.19186 75.27713 449 ft 9 kts 25°
2026-04-17 13:21 63.19235 75.27763 449 ft 9 kts 25°
2026-04-17 13:21 63.19307 75.27842 450 ft 11 kts 31°
2026-04-17 13:21 63.19345 75.27954 449 ft 8 kts 56°
2026-04-17 13:22 63.19384 75.27977 451 ft 3 kts 325°
2026-04-17 13:22 63.19384 75.27964 451 ft 2 kts 276°
2026-04-17 13:22 63.19368 75.27909 451 ft 6 kts 220°
2026-04-17 13:22 63.19361 75.27899 451 ft 0 kts 209°
2026-04-17 13:23 63.19260 75.27794 449 ft 52 kts 204°
2026-04-17 13:23 63.18696 75.27211 452 ft 124 kts 205°
2026-04-17 13:23 63.17719 75.26201 482 ft 182 kts 206°
2026-04-17 13:23 63.16511 75.24832 1043 ft 208 kts 211°
2026-04-17 13:24 63.15171 75.23149 1739 ft 230 kts 216°
2026-04-17 13:24 63.14158 75.20510 2278 ft 220 kts 246°
2026-04-17 13:24 63.13740 75.17204 2315 ft 230 kts 262°
2026-04-17 13:24 63.13452 75.13641 2877 ft 238 kts 259°
2026-04-17 13:25 63.12932 75.10226 3656 ft 240 kts 242°
2026-04-17 13:25 63.11805 75.07516 4336 ft 244 kts 212°
2026-04-17 13:25 63.10211 75.06227 5009 ft 246 kts 189°
2026-04-17 13:25 63.08507 75.05913 5688 ft 246 kts 183°
2026-04-17 13:26 63.06800 75.05485 6342 ft 246 kts 194°
2026-04-17 13:26 63.05222 75.04065 6960 ft 245 kts 215°
2026-04-17 13:26 63.03969 75.01562 7530 ft 243 kts 233°
2026-04-17 13:26 63.02973 74.98541 8053 ft 248 kts 232°
2026-04-17 13:27 63.01552 74.96098 8229 ft 270 kts 210°
2026-04-17 13:27 62.99895 74.93971 8723 ft 279 kts 213°
2026-04-17 13:27 62.98239 74.91676 9376 ft 282 kts 214°
2026-04-17 13:27 62.96592 74.89288 10056 ft 285 kts 216°
2026-04-17 13:28 62.94936 74.86822 10562 ft 293 kts 216°
2026-04-17 13:28 62.93200 74.84192 10708 ft 313 kts 217°
2026-04-17 13:28 62.91360 74.81378 10857 ft 332 kts 217°
2026-04-17 13:28 62.89418 74.78392 11107 ft 347 kts 218°
2026-04-17 13:29 62.87457 74.75374 11658 ft 351 kts 218°
2026-04-17 13:29 62.85459 74.72312 12400 ft 349 kts 218°
2026-04-17 13:29 62.83472 74.69277 13139 ft 348 kts 219°
2026-04-17 13:29 62.81472 74.66185 13844 ft 347 kts 220°
2026-04-17 13:30 62.79573 74.63046 14453 ft 346 kts 223°
2026-04-17 13:30 62.77696 74.59791 15051 ft 345 kts 224°
2026-04-17 13:30 62.75816 74.56530 15639 ft 344 kts 224°
2026-04-17 13:30 62.73910 74.53358 16217 ft 344 kts 222°
2026-04-17 13:31 62.71964 74.50300 16782 ft 345 kts 221°
2026-04-17 13:31 62.69995 74.47326 17342 ft 344 kts 221°
2026-04-17 13:31 62.68033 74.44368 17901 ft 343 kts 222°
2026-04-17 13:31 62.66089 74.41345 18425 ft 342 kts 224°
2026-04-17 13:32 62.64179 74.38266 18893 ft 340 kts 225°
2026-04-17 13:32 62.62291 74.35185 19348 ft 339 kts 225°
2026-04-17 13:32 62.60387 74.32145 19811 ft 339 kts 224°
2026-04-17 13:32 62.58477 74.29169 20226 ft 338 kts 224°
2026-04-17 13:33 62.56553 74.26178 20526 ft 345 kts 224°
2026-04-17 13:33 62.54566 74.23075 20610 ft 358 kts 224°
2026-04-17 13:33 62.52538 74.19893 20702 ft 371 kts 224°
2026-04-17 13:33 62.50418 74.16541 20808 ft 383 kts 224°
2026-04-17 13:34 62.48236 74.13086 20906 ft 395 kts 224°
2026-04-17 13:34 62.45984 74.09526 21047 ft 406 kts 224°
2026-04-17 13:34 62.43681 74.05902 21374 ft 410 kts 224°
2026-04-17 13:34 62.41370 74.02282 21847 ft 411 kts 224°
2026-04-17 13:35 62.39052 73.98657 22315 ft 412 kts 224°
2026-04-17 13:35 62.36717 73.95009 22716 ft 415 kts 224°
2026-04-17 13:35 62.34374 73.91349 23094 ft 417 kts 224°
2026-04-17 13:35 62.32020 73.87678 23490 ft 419 kts 224°
2026-04-17 13:36 62.29649 73.83987 23866 ft 421 kts 224°
2026-04-17 13:36 62.27268 73.80289 24188 ft 423 kts 225°
2026-04-17 13:36 62.24882 73.76595 24628 ft 420 kts 225°
2026-04-17 13:36 62.22549 73.72990 25044 ft 419 kts 225°
2026-04-17 13:37 62.20173 73.69313 25268 ft 423 kts 225°
2026-04-17 13:37 62.17777 73.65611 25488 ft 427 kts 225°
2026-04-17 13:37 62.15359 73.61893 25759 ft 429 kts 226°
2026-04-17 13:37 62.12946 73.58134 25987 ft 431 kts 227°
2026-04-17 13:38 62.10528 73.54289 26279 ft 432 kts 227°
2026-04-17 13:38 62.08121 73.50444 26592 ft 433 kts 227°
2026-04-17 13:38 62.05713 73.46607 26871 ft 434 kts 227°
2026-04-17 13:38 62.03277 73.42744 27130 ft 436 kts 227°
2026-04-17 13:39 62.00827 73.38874 27388 ft 438 kts 227°
2026-04-17 13:39 61.98377 73.35017 27638 ft 440 kts 227°
2026-04-17 13:39 61.95911 73.31147 27903 ft 441 kts 227°
2026-04-17 13:39 61.93430 73.27263 28091 ft 442 kts 227°
2026-04-17 13:40 61.90953 73.23397 28431 ft 442 kts 227°
2026-04-17 13:40 61.88477 73.19538 28716 ft 442 kts 227°
2026-04-17 13:40 61.86030 73.15730 28986 ft 442 kts 228°
2026-04-17 13:40 61.83555 73.11887 29342 ft 441 kts 228°
2026-04-17 13:41 61.81079 73.08053 29731 ft 439 kts 228°
2026-04-17 13:41 61.78625 73.04261 30106 ft 437 kts 228°
2026-04-17 13:41 61.76161 73.00456 30298 ft 438 kts 228°
2026-04-17 13:41 61.73690 72.96635 30351 ft 443 kts 228°
2026-04-17 13:42 61.71197 72.92793 30558 ft 443 kts 228°
2026-04-17 13:42 61.68708 72.88973 30838 ft 442 kts 227°
2026-04-17 13:42 61.66218 72.85165 31064 ft 442 kts 227°
2026-04-17 13:42 61.63723 72.81350 31227 ft 443 kts 227°
2026-04-17 13:43 61.61256 72.77584 31346 ft 444 kts 227°
2026-04-17 13:43 61.58730 72.73745 31707 ft 440 kts 226°
2026-04-17 13:43 61.56285 72.70036 31982 ft 439 kts 226°
2026-04-17 13:43 61.53805 72.66272 32102 ft 441 kts 226°
2026-04-17 13:44 61.51313 72.62493 32244 ft 443 kts 226°
2026-04-17 13:44 61.48813 72.58715 32448 ft 443 kts 226°
2026-04-17 13:44 61.46315 72.54950 32669 ft 442 kts 226°
2026-04-17 13:44 61.43821 72.51198 32835 ft 443 kts 226°
2026-04-17 13:45 61.41315 72.47435 32996 ft 444 kts 225°
2026-04-17 13:45 61.38803 72.43671 33165 ft 444 kts 225°
2026-04-17 13:45 61.36290 72.39913 33287 ft 445 kts 225°
2026-04-17 13:45 61.33763 72.36139 33415 ft 446 kts 225°
2026-04-17 13:46 61.31251 72.32399 33627 ft 446 kts 225°
2026-04-17 13:46 61.28721 72.28641 33801 ft 445 kts 225°
2026-04-17 13:46 61.26205 72.24914 34104 ft 442 kts 225°
2026-04-17 13:46 61.23711 72.21226 34326 ft 440 kts 225°
2026-04-17 13:47 61.18726 72.13853 34435 ft 444 kts 225°
2026-04-17 13:47 61.16183 72.10107 34578 ft 444 kts 225°
2026-04-17 13:47 61.13688 72.06445 34724 ft 444 kts 224°
2026-04-17 13:48 61.08656 71.99050 34911 ft 445 kts 224°
2026-04-17 13:48 61.06127 71.95329 35029 ft 445 kts 224°
2026-04-17 13:48 61.03613 71.91640 35161 ft 445 kts 225°
2026-04-17 13:49 60.99287 71.82959 35315 ft 425 kts 242°
2026-04-17 13:49 60.96382 71.72618 35603 ft 412 kts 250°
2026-04-17 13:50 60.93703 71.62172 35708 ft 416 kts 250°
2026-04-17 13:50 60.90960 71.51696 35919 ft 416 kts 249°
2026-04-17 13:51 60.88205 71.41290 36073 ft 417 kts 249°
2026-04-17 13:51 60.85414 71.30825 36214 ft 418 kts 249°
2026-04-17 13:52 60.82614 71.20345 36358 ft 419 kts 249°
2026-04-17 13:52 60.79830 71.09897 36553 ft 418 kts 248°
2026-04-17 13:53 60.77018 70.99397 36620 ft 421 kts 248°
2026-04-17 13:53 60.74178 70.88914 36748 ft 422 kts 248°
2026-04-17 13:54 60.70378 70.74938 36895 ft 423 kts 248°
2026-04-17 13:55 60.67522 70.64415 37049 ft 423 kts 248°
2026-04-17 13:55 60.66100 70.59165 37108 ft 422 kts 248°
2026-04-17 13:56 60.60070 70.38471 37183 ft 428 kts 243°
2026-04-17 13:56 60.56779 70.28390 37168 ft 429 kts 243°
2026-04-17 13:57 60.53475 70.18251 37173 ft 431 kts 243°
2026-04-17 13:58 60.48528 70.03018 37127 ft 433 kts 243°
2026-04-17 13:58 60.43535 69.87727 37139 ft 434 kts 243°
2026-04-17 13:59 60.38518 69.72452 37142 ft 435 kts 243°
2026-04-17 14:00 60.35158 69.62303 37146 ft 434 kts 243°
2026-04-17 14:00 60.31782 69.52174 37143 ft 434 kts 243°
2026-04-17 14:01 60.28404 69.42091 37111 ft 433 kts 242°
2026-04-17 14:01 60.25044 69.32025 37123 ft 432 kts 243°
2026-04-17 14:02 60.21728 69.22054 37124 ft 431 kts 242°
2026-04-17 14:02 60.18372 69.12050 37135 ft 431 kts 242°
2026-04-17 14:03 60.14989 69.02080 37116 ft 431 kts 242°
2026-04-17 14:03 60.11595 68.92162 37123 ft 431 kts 242°
2026-04-17 14:04 60.08226 68.82314 37128 ft 430 kts 242°
2026-04-17 14:04 60.04842 68.72419 37118 ft 430 kts 242°
2026-04-17 14:05 60.01453 68.62570 37117 ft 430 kts 242°
2026-04-17 14:05 59.98051 68.52732 37099 ft 430 kts 242°
2026-04-17 14:06 59.94667 68.42923 37104 ft 429 kts 242°
2026-04-17 14:06 59.91298 68.33182 37077 ft 429 kts 241°
2026-04-17 14:07 59.87850 68.23446 37093 ft 430 kts 240°
2026-04-17 14:07 59.84371 68.13764 37088 ft 430 kts 241°
2026-04-17 14:08 59.80917 68.04043 37087 ft 431 kts 241°
2026-04-17 14:08 59.77482 67.94274 37077 ft 432 kts 241°
2026-04-17 14:09 59.74033 67.84507 37026 ft 432 kts 241°
2026-04-17 14:09 59.70572 67.74766 37060 ft 432 kts 241°
2026-04-17 14:10 59.67078 67.65062 37064 ft 433 kts 240°
2026-04-17 14:10 59.63551 67.55387 37061 ft 433 kts 240°
2026-04-17 14:11 59.60055 67.45781 37052 ft 433 kts 241°
2026-04-17 14:11 59.56565 67.36097 37052 ft 433 kts 241°
2026-04-17 14:12 59.53064 67.26470 37032 ft 432 kts 240°
2026-04-17 14:12 59.49546 67.16879 37042 ft 431 kts 240°
2026-04-17 14:13 59.44269 67.02579 37020 ft 430 kts 240°
2026-04-17 14:13 59.40746 66.93078 37018 ft 429 kts 240°
2026-04-17 14:14 59.37249 66.83679 37016 ft 428 kts 240°
2026-04-17 14:14 59.33772 66.74230 37006 ft 426 kts 241°
2026-04-17 14:15 59.30380 66.64713 36990 ft 425 kts 242°
2026-04-17 14:15 59.27002 66.55248 36997 ft 424 kts 241°
2026-04-17 14:16 59.23555 66.45883 36974 ft 424 kts 240°
2026-04-17 14:16 59.20099 66.36547 36981 ft 424 kts 240°
2026-04-17 14:17 59.16659 66.27217 36924 ft 424 kts 240°
2026-04-17 14:17 59.13216 66.17875 36952 ft 423 kts 240°
2026-04-17 14:18 59.09774 66.08599 36961 ft 423 kts 240°
2026-04-17 14:18 59.06319 65.99364 36960 ft 424 kts 240°
2026-04-17 14:19 59.02851 65.90085 36956 ft 424 kts 240°
2026-04-17 14:19 58.99404 65.80869 36937 ft 425 kts 240°
2026-04-17 14:20 58.95913 65.71605 36937 ft 425 kts 240°
2026-04-17 14:20 58.92411 65.62393 36926 ft 425 kts 240°
2026-04-17 14:21 58.88919 65.53172 36929 ft 425 kts 240°
2026-04-17 14:21 58.85425 65.43957 36927 ft 425 kts 240°
2026-04-17 14:22 58.81907 65.34774 36932 ft 425 kts 239°
2026-04-17 14:22 58.78374 65.25632 36862 ft 425 kts 239°
2026-04-17 14:23 58.74873 65.16571 36904 ft 424 kts 239°
2026-04-17 14:23 58.71356 65.07453 36913 ft 424 kts 239°
2026-04-17 14:24 58.67828 64.98359 36910 ft 424 kts 239°
2026-04-17 14:24 58.64297 64.89281 36912 ft 424 kts 239°
2026-04-17 14:25 58.60749 64.80222 36914 ft 425 kts 238°
2026-04-17 14:25 58.57107 64.71281 36912 ft 426 kts 236°
2026-04-17 14:26 58.53381 64.62415 36907 ft 426 kts 238°
2026-04-17 14:26 58.49795 64.53373 36907 ft 427 kts 238°
2026-04-17 14:27 58.46166 64.44369 36905 ft 428 kts 238°
2026-04-17 14:27 58.42517 64.35465 36899 ft 429 kts 237°
2026-04-17 14:28 58.38818 64.26510 36870 ft 430 kts 237°
2026-04-17 14:28 58.35101 64.17545 36905 ft 431 kts 237°
2026-04-17 14:29 58.31387 64.08614 36913 ft 431 kts 237°
2026-04-17 14:29 58.27649 63.99660 36908 ft 432 kts 237°
2026-04-17 14:30 58.23795 63.90859 36906 ft 433 kts 234°
2026-04-17 14:30 58.19874 63.82178 36909 ft 433 kts 234°
2026-04-17 14:31 58.15960 63.73482 36911 ft 433 kts 235°
2026-04-17 14:31 58.12061 63.64808 36905 ft 433 kts 235°
2026-04-17 14:32 58.08192 63.56170 36915 ft 432 kts 236°
2026-04-17 14:32 58.04391 63.47335 36917 ft 430 kts 236°
2026-04-17 14:33 58.00598 63.38574 36920 ft 430 kts 235°
2026-04-17 14:33 57.96746 63.30047 36916 ft 430 kts 234°
2026-04-17 14:34 57.92855 63.21515 36918 ft 429 kts 235°
2026-04-17 14:34 57.89035 63.12925 36920 ft 428 kts 236°
2026-04-17 14:35 57.85226 63.04327 36914 ft 428 kts 235°
2026-04-17 14:35 57.81358 62.95812 36931 ft 428 kts 234°
2026-04-17 14:36 57.77493 62.87331 36923 ft 428 kts 234°
2026-04-17 14:36 57.73651 62.78814 36934 ft 428 kts 234°
2026-04-17 14:37 57.69779 62.70337 36938 ft 429 kts 234°
2026-04-17 14:37 57.65882 62.61860 36940 ft 430 kts 234°
2026-04-17 14:38 57.61977 62.53388 36940 ft 431 kts 234°
2026-04-17 14:38 57.58050 62.44897 36933 ft 432 kts 234°
2026-04-17 14:39 57.54140 62.36480 36946 ft 432 kts 234°
2026-04-17 14:39 57.50199 62.28001 36953 ft 433 kts 234°
2026-04-17 14:40 57.46242 62.19543 36952 ft 434 kts 234°
2026-04-17 14:40 57.42252 62.11140 36960 ft 434 kts 233°
2026-04-17 14:41 57.38262 62.02699 36925 ft 434 kts 234°
2026-04-17 14:41 57.34291 61.94294 36961 ft 434 kts 233°
2026-04-17 14:42 57.30167 61.86155 36959 ft 435 kts 230°
2026-04-17 14:42 57.25970 61.78128 36968 ft 433 kts 231°
2026-04-17 14:43 57.21874 61.70106 36964 ft 432 kts 231°
2026-04-17 14:43 57.17727 61.62098 36972 ft 431 kts 231°
2026-04-17 14:44 57.13582 61.54113 36973 ft 430 kts 231°
2026-04-17 14:44 57.10138 61.47493 36984 ft 430 kts 231°
2026-04-17 14:45 57.05989 61.39561 36995 ft 430 kts 231°
2026-04-17 14:45 57.01836 61.31655 36994 ft 430 kts 231°
2026-04-17 14:46 56.97675 61.23753 36996 ft 431 kts 231°
2026-04-17 14:46 56.93502 61.15862 36993 ft 431 kts 230°
2026-04-17 14:47 56.89328 61.07966 37006 ft 432 kts 230°
2026-04-17 14:47 56.85141 61.00056 37007 ft 433 kts 230°
2026-04-17 14:48 56.80953 60.92173 37023 ft 433 kts 230°
2026-04-17 14:48 56.76748 60.84282 37025 ft 434 kts 230°
2026-04-17 14:49 56.72509 60.76435 37012 ft 435 kts 229°
2026-04-17 14:49 56.68188 60.68824 37018 ft 435 kts 228°
2026-04-17 14:50 56.63841 60.61193 37017 ft 435 kts 228°
2026-04-17 14:50 56.59498 60.53534 37024 ft 434 kts 229°
2026-04-17 14:51 56.55329 60.45628 37030 ft 433 kts 231°
2026-04-17 14:51 56.51116 60.37791 37011 ft 435 kts 227°
2026-04-17 14:52 56.46645 60.30387 37033 ft 435 kts 226°
2026-04-17 14:52 56.42288 60.22801 37045 ft 434 kts 229°
2026-04-17 14:53 56.38019 60.15174 37044 ft 434 kts 228°
2026-04-17 14:53 56.33642 60.07570 37049 ft 435 kts 227°
2026-04-17 14:54 56.29257 60.00064 37033 ft 435 kts 227°
2026-04-17 14:54 56.24942 59.92534 37048 ft 434 kts 228°
2026-04-17 14:55 56.20601 59.84973 37062 ft 434 kts 227°
2026-04-17 14:55 56.16233 59.77454 37051 ft 435 kts 227°
2026-04-17 14:56 56.11859 59.69943 37071 ft 435 kts 227°
2026-04-17 14:56 56.07495 59.62465 37064 ft 435 kts 227°
2026-04-17 14:57 56.03722 59.54165 37063 ft 427 kts 245°
2026-04-17 14:57 56.01007 59.44751 37068 ft 426 kts 246°
2026-04-17 14:58 55.98312 59.35422 37075 ft 426 kts 245°
2026-04-17 14:58 55.95524 59.26065 37073 ft 426 kts 245°
2026-04-17 14:59 55.92732 59.16733 37063 ft 426 kts 245°
2026-04-17 14:59 55.89993 59.07427 37067 ft 426 kts 245°
2026-04-17 15:00 55.87262 58.98056 37077 ft 426 kts 245°
2026-04-17 15:00 55.84481 58.88725 37079 ft 427 kts 244°
2026-04-17 15:01 55.81676 58.79422 37087 ft 427 kts 244°
2026-04-17 15:01 55.78861 58.70133 37077 ft 428 kts 244°
2026-04-17 15:02 55.75976 58.60855 37076 ft 428 kts 243°
2026-04-17 15:02 55.73127 58.51613 37085 ft 428 kts 244°
2026-04-17 15:03 55.70319 58.42299 37083 ft 429 kts 244°
2026-04-17 15:03 55.67488 58.32996 37087 ft 430 kts 244°
2026-04-17 15:04 55.64604 58.23717 37088 ft 430 kts 243°
2026-04-17 15:04 55.61726 58.14412 37082 ft 430 kts 244°
2026-04-17 15:05 55.58902 58.05115 37086 ft 430 kts 244°
2026-04-17 15:05 55.56043 57.95823 37094 ft 430 kts 243°
2026-04-17 15:06 55.53145 57.86585 37096 ft 431 kts 243°
2026-04-17 15:06 55.50230 57.77331 37108 ft 431 kts 243°
2026-04-17 15:07 55.47319 57.68114 37113 ft 431 kts 243°
2026-04-17 15:07 55.44394 57.58880 37112 ft 431 kts 243°
2026-04-17 15:08 55.41468 57.49680 37109 ft 430 kts 243°
2026-04-17 15:08 55.38538 57.40502 37125 ft 430 kts 243°
2026-04-17 15:09 55.35609 57.31360 37132 ft 429 kts 243°
2026-04-17 15:09 55.32672 57.22227 37133 ft 428 kts 243°
2026-04-17 15:10 55.29750 57.13178 37135 ft 428 kts 242°
2026-04-17 15:11 55.25329 56.99593 37141 ft 427 kts 242°
2026-04-17 15:11 55.22375 56.90554 37150 ft 427 kts 242°
2026-04-17 15:12 55.19425 56.81555 37143 ft 427 kts 242°
2026-04-17 15:12 55.16460 56.72540 37163 ft 426 kts 242°
2026-04-17 15:13 55.13495 56.63558 37156 ft 426 kts 242°
2026-04-17 15:13 55.10537 56.54628 37166 ft 427 kts 242°
2026-04-17 15:14 55.07554 56.45653 37168 ft 427 kts 242°
2026-04-17 15:14 55.04567 56.36673 37169 ft 428 kts 242°
2026-04-17 15:15 55.01574 56.27700 37171 ft 429 kts 242°
2026-04-17 15:15 54.98568 56.18721 37180 ft 430 kts 242°
2026-04-17 15:16 54.95545 56.09724 37184 ft 430 kts 242°
2026-04-17 15:16 54.92532 56.00788 37185 ft 431 kts 242°
2026-04-17 15:17 54.89486 55.91790 37174 ft 432 kts 241°
2026-04-17 15:17 54.86424 55.82800 37186 ft 432 kts 241°
2026-04-17 15:18 54.83345 55.73811 37183 ft 433 kts 241°
2026-04-17 15:18 54.80265 55.64850 37186 ft 433 kts 241°
2026-04-17 15:19 54.77179 55.55908 37188 ft 433 kts 241°
2026-04-17 15:19 54.74077 55.46967 37175 ft 432 kts 241°
2026-04-17 15:20 54.70996 55.38108 37183 ft 432 kts 241°
2026-04-17 15:20 54.67901 55.29207 37186 ft 431 kts 241°
2026-04-17 15:21 54.64794 55.20336 37185 ft 431 kts 241°
2026-04-17 15:21 54.61725 55.11458 37187 ft 430 kts 241°
2026-04-17 15:22 54.58635 55.02608 37188 ft 430 kts 240°
2026-04-17 15:22 54.55544 54.93792 37188 ft 430 kts 240°
2026-04-17 15:23 54.52432 54.85000 37190 ft 429 kts 240°
2026-04-17 15:23 54.49331 54.76285 37187 ft 429 kts 240°
2026-04-17 15:24 54.46210 54.67531 37191 ft 429 kts 240°
2026-04-17 15:24 54.43088 54.58801 37183 ft 429 kts 240°
2026-04-17 15:25 54.39957 54.50072 37189 ft 429 kts 240°
2026-04-17 15:25 54.36817 54.41357 37191 ft 429 kts 240°
2026-04-17 15:26 54.33668 54.32654 37190 ft 429 kts 240°
2026-04-17 15:26 54.30527 54.23998 37191 ft 430 kts 240°
2026-04-17 15:27 54.27363 54.15314 37190 ft 430 kts 239°
2026-04-17 15:27 54.24175 54.06616 37190 ft 431 kts 239°
2026-04-17 15:28 54.20983 53.97930 37188 ft 432 kts 239°
2026-04-17 15:28 54.17790 53.89252 37194 ft 432 kts 239°
2026-04-17 15:29 54.14579 53.80547 37184 ft 433 kts 239°
2026-04-17 15:29 54.11398 53.71903 37194 ft 433 kts 239°
2026-04-17 15:30 54.08175 53.63245 37187 ft 433 kts 239°
2026-04-17 15:30 54.04939 53.54590 37195 ft 432 kts 239°
2026-04-17 15:31 54.01721 53.45976 37190 ft 432 kts 239°
2026-04-17 15:31 53.98483 53.37344 37180 ft 432 kts 239°
2026-04-17 15:32 53.95247 53.28767 37191 ft 431 kts 239°
2026-04-17 15:32 53.92549 53.21651 37188 ft 431 kts 239°
2026-04-17 15:33 53.89302 53.13106 37193 ft 430 kts 239°
2026-04-17 15:33 53.86066 53.04577 37189 ft 430 kts 239°
2026-04-17 15:34 53.82821 52.96057 37188 ft 430 kts 238°
2026-04-17 15:34 53.79487 52.87640 37192 ft 430 kts 237°
2026-04-17 15:35 53.76113 52.79283 37188 ft 430 kts 237°
2026-04-17 15:35 53.72743 52.70946 37187 ft 430 kts 237°
2026-04-17 15:36 53.69371 52.62607 37186 ft 430 kts 237°
2026-04-17 15:36 53.65996 52.54277 37188 ft 430 kts 237°
2026-04-17 15:37 53.62616 52.45963 37189 ft 430 kts 237°
2026-04-17 15:37 53.59234 52.37670 37198 ft 430 kts 237°
2026-04-17 15:38 53.55841 52.29379 37200 ft 430 kts 237°
2026-04-17 15:38 53.52463 52.21151 37197 ft 431 kts 237°
2026-04-17 15:39 53.49051 52.12869 37205 ft 431 kts 237°
2026-04-17 15:39 53.45635 52.04602 37196 ft 431 kts 237°
2026-04-17 15:40 53.42212 51.96346 37206 ft 431 kts 237°
2026-04-17 15:40 53.38776 51.88087 37205 ft 432 kts 236°
2026-04-17 15:41 53.35335 51.79841 37199 ft 432 kts 236°
2026-04-17 15:41 53.31909 51.71657 37198 ft 432 kts 236°
2026-04-17 15:42 53.28458 51.63441 37200 ft 432 kts 236°
2026-04-17 15:42 53.25006 51.55248 37210 ft 432 kts 236°
2026-04-17 15:43 53.21538 51.47041 37203 ft 432 kts 236°
2026-04-17 15:43 53.18067 51.38854 37195 ft 432 kts 236°
2026-04-17 15:44 53.14592 51.30682 37204 ft 431 kts 236°
2026-04-17 15:44 53.11118 51.22528 37207 ft 431 kts 236°
2026-04-17 15:45 53.07642 51.14390 37209 ft 431 kts 236°
2026-04-17 15:45 53.04159 51.06264 37214 ft 431 kts 236°
2026-04-17 15:46 53.00679 50.98169 37211 ft 431 kts 236°
2026-04-17 15:46 52.97211 50.90129 37213 ft 431 kts 236°
2026-04-17 15:47 52.93715 50.82047 37216 ft 431 kts 236°
2026-04-17 15:47 52.90205 50.73960 37212 ft 431 kts 236°
2026-04-17 15:48 52.86697 50.65903 37217 ft 431 kts 236°
2026-04-17 15:48 52.83186 50.57861 37215 ft 431 kts 236°
2026-04-17 15:49 52.79665 50.49823 37218 ft 431 kts 235°
2026-04-17 15:49 52.76161 50.41867 37218 ft 431 kts 235°
2026-04-17 15:50 52.72603 50.33810 37213 ft 431 kts 235°
2026-04-17 15:50 52.69080 50.25879 37206 ft 431 kts 235°
2026-04-17 15:51 52.65528 50.17916 37213 ft 431 kts 235°
2026-04-17 15:51 52.61968 50.09950 37210 ft 432 kts 235°
2026-04-17 15:52 52.58409 50.02005 37202 ft 432 kts 235°
2026-04-17 15:52 52.54785 49.94124 37200 ft 432 kts 232°
2026-04-17 15:53 52.50950 49.86522 37205 ft 432 kts 231°
2026-04-17 15:53 52.47098 49.78954 37204 ft 432 kts 232°
2026-04-17 15:54 52.43289 49.71402 37201 ft 432 kts 232°
2026-04-17 15:54 52.39447 49.63768 37215 ft 432 kts 232°
2026-04-17 15:55 52.35607 49.56159 37193 ft 432 kts 232°
2026-04-17 15:55 52.31773 49.48583 37188 ft 433 kts 232°
2026-04-17 15:56 52.27942 49.41051 37209 ft 433 kts 231°
2026-04-17 15:56 52.24074 49.33504 37209 ft 433 kts 231°
2026-04-17 15:57 52.20203 49.25970 37190 ft 433 kts 231°
2026-04-17 15:57 52.16329 49.18446 37186 ft 433 kts 231°
2026-04-17 15:58 52.12453 49.10936 37187 ft 433 kts 231°
2026-04-17 15:58 52.08564 49.03427 37175 ft 433 kts 231°
2026-04-17 15:59 52.04738 48.95985 37173 ft 433 kts 232°
2026-04-17 15:59 52.00883 48.88464 37183 ft 432 kts 232°
2026-04-17 16:00 51.97021 48.80970 37177 ft 432 kts 231°
2026-04-17 16:00 51.93135 48.73543 37183 ft 432 kts 231°
2026-04-17 16:01 51.89231 48.66135 37187 ft 432 kts 231°
2026-04-17 16:01 51.85325 48.58730 37177 ft 432 kts 231°
2026-04-17 16:02 51.81420 48.51338 37183 ft 432 kts 231°
2026-04-17 16:02 51.77537 48.44008 37182 ft 432 kts 231°
2026-04-17 16:03 51.73635 48.36667 37192 ft 432 kts 231°
2026-04-17 16:03 51.69714 48.29312 37177 ft 432 kts 231°
2026-04-17 16:04 51.65794 48.21975 37176 ft 432 kts 231°
2026-04-17 16:04 51.61870 48.14650 37180 ft 432 kts 231°
2026-04-17 16:05 51.57944 48.07341 37181 ft 432 kts 231°
2026-04-17 16:05 51.54004 48.00027 37180 ft 432 kts 231°
2026-04-17 16:06 51.50087 47.92776 37183 ft 433 kts 231°
2026-04-17 16:06 51.46134 47.85480 37180 ft 433 kts 231°
2026-04-17 16:07 51.42176 47.78194 37181 ft 433 kts 230°
2026-04-17 16:07 51.38212 47.70920 37180 ft 434 kts 230°
2026-04-17 16:08 51.34238 47.63648 37179 ft 434 kts 230°
2026-04-17 16:08 51.30254 47.56379 37179 ft 434 kts 230°
2026-04-17 16:09 51.26268 47.49126 37176 ft 435 kts 230°
2026-04-17 16:09 51.22278 47.41888 37180 ft 435 kts 230°
2026-04-17 16:10 51.18302 47.34694 37172 ft 435 kts 230°
2026-04-17 16:10 51.14299 47.27474 37175 ft 435 kts 230°
2026-04-17 16:11 51.10295 47.20271 37171 ft 434 kts 230°
2026-04-17 16:11 51.06285 47.13078 37173 ft 434 kts 230°
2026-04-17 16:12 51.02273 47.05902 37171 ft 434 kts 230°
2026-04-17 16:12 50.98248 46.98722 37170 ft 434 kts 230°
2026-04-17 16:13 50.94230 46.91575 37165 ft 434 kts 230°
2026-04-17 16:13 50.90199 46.84425 37169 ft 434 kts 230°
2026-04-17 16:14 50.84173 46.73773 37168 ft 435 kts 230°
2026-04-17 16:14 50.80129 46.66651 37167 ft 435 kts 230°
2026-04-17 16:15 50.76075 46.59530 37164 ft 436 kts 230°
2026-04-17 16:15 50.72013 46.52415 37168 ft 436 kts 230°
2026-04-17 16:16 50.67942 46.45303 37167 ft 437 kts 230°
2026-04-17 16:16 50.63865 46.38206 37164 ft 437 kts 230°
2026-04-17 16:17 50.59779 46.31101 37158 ft 438 kts 230°
2026-04-17 16:17 50.55696 46.23992 37165 ft 438 kts 230°
2026-04-17 16:18 50.51702 46.16857 37162 ft 438 kts 231°
2026-04-17 16:18 50.47662 46.09618 37163 ft 438 kts 231°
2026-04-17 16:19 50.44314 46.03655 37158 ft 438 kts 230°
2026-04-17 16:19 50.40272 45.96519 37160 ft 438 kts 230°
2026-04-17 16:20 50.36231 45.89382 37164 ft 437 kts 231°
2026-04-17 16:20 50.32221 45.82218 37162 ft 436 kts 231°
2026-04-17 16:21 50.28195 45.75114 37161 ft 436 kts 230°
2026-04-17 16:21 50.24138 45.68078 37157 ft 435 kts 230°
2026-04-17 16:22 50.20097 45.61042 37154 ft 434 kts 230°
2026-04-17 16:22 50.16092 45.54001 37163 ft 434 kts 230°
2026-04-17 16:23 50.12068 45.46990 37160 ft 433 kts 230°
2026-04-17 16:23 50.08056 45.40033 37158 ft 433 kts 230°
2026-04-17 16:24 50.04031 45.33066 37159 ft 433 kts 230°
2026-04-17 16:24 50.00174 45.25906 37148 ft 430 kts 238°
2026-04-17 16:25 49.97279 45.17805 37158 ft 428 kts 245°
2026-04-17 16:25 49.94405 45.09717 37139 ft 430 kts 238°
2026-04-17 16:26 49.90677 45.02509 37162 ft 432 kts 230°
2026-04-17 16:26 49.86647 44.95520 37161 ft 432 kts 232°
2026-04-17 16:27 49.82966 44.88255 37144 ft 431 kts 236°
2026-04-17 16:27 49.79438 44.80743 37160 ft 431 kts 236°
2026-04-17 16:28 49.75941 44.73188 37149 ft 431 kts 237°
2026-04-17 16:28 49.72429 44.65643 37131 ft 432 kts 232°
2026-04-17 16:29 49.70148 44.62694 37016 ft 440 kts 199°
2026-04-17 16:29 49.67218 44.61381 36787 ft 442 kts 207°
2026-04-17 16:29 49.64429 44.59246 36605 ft 441 kts 213°
2026-04-17 16:29 49.62064 44.56410 36445 ft 435 kts 230°
2026-04-17 16:30 49.60424 44.52516 36328 ft 428 kts 250°
2026-04-17 16:30 49.59640 44.48237 36757 ft 413 kts 269°
2026-04-17 16:30 49.59856 44.43898 37182 ft 403 kts 281°
2026-04-17 16:30 49.60157 44.40592 37069 ft 407 kts 269°
2026-04-17 16:31 49.59619 44.36314 36996 ft 412 kts 246°
2026-04-17 16:31 49.58011 44.32673 37073 ft 416 kts 225°
2026-04-17 16:31 49.53917 44.26382 37143 ft 416 kts 233°
2026-04-17 16:32 49.50426 44.19235 37145 ft 419 kts 237°
2026-04-17 16:32 49.47048 44.11853 37126 ft 424 kts 237°
2026-04-17 16:33 49.43572 44.04471 37140 ft 428 kts 236°
2026-04-17 16:33 49.39993 43.97092 37138 ft 432 kts 236°
2026-04-17 16:34 49.36394 43.89642 37134 ft 435 kts 236°
2026-04-17 16:34 49.32789 43.82157 37131 ft 438 kts 236°
2026-04-17 16:35 49.29187 43.74694 37120 ft 432 kts 236°
2026-04-17 16:35 49.25500 43.67517 37121 ft 429 kts 228°
2026-04-17 16:36 49.20894 43.61679 37130 ft 430 kts 221°
2026-04-17 16:36 49.16169 43.56090 37133 ft 429 kts 221°
2026-04-17 16:37 49.11494 43.50519 37130 ft 429 kts 221°
2026-04-17 16:37 49.06793 43.44883 37131 ft 430 kts 222°
2026-04-17 16:38 49.02080 43.39222 37129 ft 432 kts 221°
2026-04-17 16:38 48.97340 43.33558 37128 ft 434 kts 221°
2026-04-17 16:39 48.92569 43.27895 37132 ft 436 kts 222°
2026-04-17 16:39 48.87785 43.22223 37119 ft 438 kts 222°
2026-04-17 16:40 48.82979 43.16517 37116 ft 439 kts 222°
2026-04-17 16:40 48.78386 43.11070 37118 ft 440 kts 222°
2026-04-17 16:41 48.73684 43.05510 37112 ft 440 kts 222°
2026-04-17 16:41 48.68888 42.99860 37109 ft 439 kts 222°
2026-04-17 16:42 48.64068 42.94197 37109 ft 438 kts 222°
2026-04-17 16:42 48.59262 42.88565 37099 ft 437 kts 222°
2026-04-17 16:43 48.54462 42.82970 37103 ft 435 kts 222°
2026-04-17 16:43 48.49672 42.77417 37106 ft 434 kts 222°
2026-04-17 16:44 48.44888 42.71876 37102 ft 432 kts 222°
2026-04-17 16:44 48.40119 42.66365 37104 ft 432 kts 222°
2026-04-17 16:45 48.35360 42.60880 37100 ft 431 kts 223°
2026-04-17 16:45 48.30604 42.55408 37105 ft 431 kts 223°
2026-04-17 16:46 48.25836 42.49935 37102 ft 431 kts 223°
2026-04-17 16:46 48.21062 42.44485 37100 ft 432 kts 222°
2026-04-17 16:47 48.16282 42.39115 37102 ft 432 kts 222°
2026-04-17 16:47 48.11434 42.33673 37097 ft 433 kts 223°
2026-04-17 16:48 48.06664 42.28242 37099 ft 433 kts 223°
2026-04-17 16:48 48.01857 42.22790 37098 ft 434 kts 223°
2026-04-17 16:49 47.97043 42.17375 37098 ft 432 kts 223°
2026-04-17 16:49 47.92231 42.11983 37103 ft 432 kts 223°
2026-04-17 16:50 47.87429 42.06617 37087 ft 431 kts 223°
2026-04-17 16:50 47.82642 42.01272 37099 ft 429 kts 223°
2026-04-17 16:51 47.77870 41.95961 37098 ft 428 kts 223°
2026-04-17 16:51 47.73100 41.90660 37097 ft 427 kts 223°
2026-04-17 16:52 47.68334 41.85381 37094 ft 427 kts 223°
2026-04-17 16:52 47.63563 41.80103 37094 ft 427 kts 223°
2026-04-17 16:53 47.58828 41.74873 37088 ft 427 kts 223°
2026-04-17 16:53 47.54051 41.69608 37089 ft 428 kts 223°
2026-04-17 16:54 47.49280 41.64350 37092 ft 428 kts 223°
2026-04-17 16:54 47.44493 41.59092 37089 ft 428 kts 223°
2026-04-17 16:55 47.39710 41.53857 37079 ft 428 kts 222°
2026-04-17 16:55 47.34920 41.48626 37083 ft 428 kts 222°
2026-04-17 16:56 47.30140 41.43414 37087 ft 427 kts 222°
2026-04-17 16:56 47.25386 41.38243 37072 ft 427 kts 221°
2026-04-17 16:57 47.20610 41.33059 37084 ft 426 kts 221°
2026-04-17 16:57 47.15844 41.27898 37083 ft 425 kts 221°
2026-04-17 16:58 47.11091 41.22764 37088 ft 424 kts 221°
2026-04-17 16:58 47.06341 41.17642 37071 ft 423 kts 221°
2026-04-17 16:59 47.01604 41.12547 37083 ft 422 kts 221°
2026-04-17 16:59 46.96871 41.07466 37078 ft 421 kts 221°
2026-04-17 17:00 46.92182 41.02443 37088 ft 421 kts 221°
2026-04-17 17:00 46.87453 40.97391 37074 ft 421 kts 221°
2026-04-17 17:01 46.82726 40.92348 37082 ft 421 kts 220°
2026-04-17 17:01 46.77999 40.87304 37083 ft 421 kts 221°
2026-04-17 17:02 46.73317 40.82158 37079 ft 421 kts 221°
2026-04-17 17:02 46.68643 40.77002 37078 ft 421 kts 221°
2026-04-17 17:03 46.63958 40.71865 37072 ft 422 kts 221°
2026-04-17 17:03 46.59263 40.66736 37074 ft 422 kts 221°
2026-04-17 17:04 46.54541 40.61644 37072 ft 422 kts 220°
2026-04-17 17:04 46.49827 40.56632 37066 ft 422 kts 220°
2026-04-17 17:05 46.45092 40.51605 37066 ft 422 kts 220°
2026-04-17 17:05 46.40357 40.46580 37064 ft 421 kts 220°
2026-04-17 17:06 46.35634 40.41575 37063 ft 420 kts 220°
2026-04-17 17:06 46.31706 40.37419 37058 ft 419 kts 220°
2026-04-17 17:07 46.27000 40.32452 37062 ft 418 kts 220°
2026-04-17 17:07 46.22295 40.27495 37060 ft 418 kts 220°
2026-04-17 17:08 46.17604 40.22564 37055 ft 417 kts 219°
2026-04-17 17:08 46.12916 40.17646 37051 ft 416 kts 219°
2026-04-17 17:09 46.08237 40.12749 37053 ft 416 kts 219°
2026-04-17 17:09 46.03549 40.07853 37054 ft 416 kts 219°
2026-04-17 17:10 45.98860 40.02965 37056 ft 416 kts 219°
2026-04-17 17:10 45.94197 39.98115 37052 ft 417 kts 219°
2026-04-17 17:11 45.89489 39.93229 37056 ft 417 kts 219°
2026-04-17 17:11 45.84778 39.88347 37051 ft 418 kts 219°
2026-04-17 17:12 45.80053 39.83451 37038 ft 419 kts 219°
2026-04-17 17:12 45.75339 39.78537 37051 ft 419 kts 220°
2026-04-17 17:13 45.70622 39.73628 37047 ft 419 kts 219°
2026-04-17 17:13 45.65899 39.68726 37048 ft 420 kts 219°
2026-04-17 17:14 45.61200 39.63859 37031 ft 420 kts 219°
2026-04-17 17:15 45.54090 39.56538 37047 ft 420 kts 219°
2026-04-17 17:15 45.49332 39.51728 37036 ft 420 kts 219°
2026-04-17 17:16 45.44562 39.46922 37023 ft 419 kts 219°
2026-04-17 17:16 45.39800 39.42125 37035 ft 419 kts 219°
2026-04-17 17:17 45.35031 39.37325 37034 ft 420 kts 219°
2026-04-17 17:17 45.30299 39.32573 37033 ft 419 kts 219°
2026-04-17 17:18 45.25528 39.27790 37016 ft 420 kts 219°
2026-04-17 17:18 45.20752 39.23014 37022 ft 420 kts 219°
2026-04-17 17:19 45.15955 39.18224 36586 ft 428 kts 219°
2026-04-17 17:19 45.13528 39.15805 36163 ft 427 kts 219°
2026-04-17 17:19 45.11105 39.13394 35648 ft 424 kts 220°
2026-04-17 17:19 45.08693 39.10999 35158 ft 421 kts 220°
2026-04-17 17:20 45.06307 39.08632 34745 ft 417 kts 220°
2026-04-17 17:20 45.03943 39.06288 34334 ft 413 kts 220°
2026-04-17 17:20 45.01601 39.03967 33911 ft 409 kts 220°
2026-04-17 17:20 44.99283 39.01671 33450 ft 406 kts 220°
2026-04-17 17:21 44.96980 38.99392 33033 ft 402 kts 220°
2026-04-17 17:21 44.94704 38.97143 32626 ft 397 kts 220°
2026-04-17 17:21 44.92446 38.94913 32215 ft 394 kts 220°
2026-04-17 17:21 44.90212 38.92707 31814 ft 390 kts 220°
2026-04-17 17:22 44.88002 38.90528 31430 ft 386 kts 220°
2026-04-17 17:22 44.85809 38.88366 31041 ft 383 kts 220°
2026-04-17 17:22 44.83658 38.86249 30660 ft 381 kts 220°
2026-04-17 17:22 44.81489 38.84119 30275 ft 378 kts 220°
2026-04-17 17:23 44.79259 38.82156 29821 ft 383 kts 209°
2026-04-17 17:23 44.76620 38.81190 29423 ft 391 kts 192°
2026-04-17 17:23 44.74338 38.81180 29029 ft 399 kts 177°
2026-04-17 17:23 44.71618 38.82067 28628 ft 401 kts 171°
2026-04-17 17:24 44.68936 38.83111 28199 ft 399 kts 170°
2026-04-17 17:24 44.66277 38.84165 27822 ft 395 kts 170°
2026-04-17 17:24 44.63635 38.85199 27430 ft 393 kts 170°
2026-04-17 17:24 44.61008 38.86208 27032 ft 390 kts 170°
2026-04-17 17:25 44.58397 38.87195 26654 ft 387 kts 170°
2026-04-17 17:25 44.55805 38.88166 26277 ft 385 kts 170°
2026-04-17 17:25 44.53231 38.89124 25906 ft 382 kts 170°
2026-04-17 17:25 44.50664 38.90076 25540 ft 380 kts 170°
2026-04-17 17:26 44.48117 38.91020 25169 ft 378 kts 169°
2026-04-17 17:26 44.45580 38.91960 24779 ft 376 kts 169°
2026-04-17 17:26 44.43053 38.92895 24404 ft 375 kts 169°
2026-04-17 17:26 44.40541 38.93825 24043 ft 373 kts 169°
2026-04-17 17:27 44.38033 38.94752 23664 ft 372 kts 169°
2026-04-17 17:27 44.35531 38.95676 23237 ft 371 kts 169°
2026-04-17 17:27 44.33042 38.96592 22831 ft 369 kts 169°
2026-04-17 17:27 44.30554 38.97431 22448 ft 366 kts 171°
2026-04-17 17:28 44.28085 38.98212 22065 ft 359 kts 171°
2026-04-17 17:28 44.25670 38.98968 21715 ft 353 kts 171°
2026-04-17 17:28 44.23310 38.99708 21359 ft 351 kts 171°
2026-04-17 17:28 44.20935 39.00459 20996 ft 350 kts 171°
2026-04-17 17:29 44.18565 39.01212 20649 ft 348 kts 171°
2026-04-17 17:29 44.16213 39.01962 20311 ft 346 kts 171°
2026-04-17 17:29 44.13868 39.02709 19959 ft 344 kts 171°
2026-04-17 17:29 44.11532 39.03375 19709 ft 341 kts 173°
2026-04-17 17:30 44.09169 39.03935 19446 ft 349 kts 172°
2026-04-17 17:30 44.06821 39.05076 19147 ft 365 kts 153°
2026-04-17 17:30 44.04807 39.07268 18756 ft 371 kts 133°
2026-04-17 17:30 44.03494 39.10326 18466 ft 372 kts 108°
2026-04-17 17:31 44.03235 39.13895 18172 ft 376 kts 83°
2026-04-17 17:31 44.03735 39.17467 17895 ft 377 kts 75°
2026-04-17 17:31 44.04365 39.21004 17637 ft 377 kts 82°
2026-04-17 17:31 44.04269 39.24628 17362 ft 376 kts 105°
2026-04-17 17:32 44.03191 39.27837 17086 ft 371 kts 131°
2026-04-17 17:32 44.01239 39.30089 16838 ft 365 kts 156°
2026-04-17 17:32 43.98887 39.31142 16689 ft 347 kts 167°
2026-04-17 17:32 43.96612 39.32245 16433 ft 338 kts 159°
2026-04-17 17:33 43.94548 39.33667 15966 ft 335 kts 152°
2026-04-17 17:33 43.92542 39.35296 15308 ft 334 kts 160°
2026-04-17 17:33 43.90318 39.35773 14879 ft 318 kts 191°
2026-04-17 17:33 43.88313 39.34725 14550 ft 305 kts 216°
2026-04-17 17:34 43.86517 39.33188 14258 ft 305 kts 211°
2026-04-17 17:34 43.84615 39.31814 13940 ft 311 kts 208°
2026-04-17 17:34 43.82648 39.30526 13591 ft 313 kts 206°
2026-04-17 17:34 43.80666 39.29306 13221 ft 310 kts 205°
2026-04-17 17:35 43.78697 39.28137 12878 ft 307 kts 205°
2026-04-17 17:35 43.76735 39.26996 12546 ft 305 kts 204°
2026-04-17 17:35 43.74783 39.25871 12219 ft 303 kts 204°
2026-04-17 17:35 43.72845 39.24761 11905 ft 301 kts 204°
2026-04-17 17:36 43.70906 39.23653 11594 ft 300 kts 204°
2026-04-17 17:36 43.68975 39.22551 11285 ft 300 kts 204°
2026-04-17 17:36 43.67046 39.21452 10970 ft 300 kts 204°
2026-04-17 17:36 43.65119 39.20356 10660 ft 298 kts 203°
2026-04-17 17:37 43.63225 39.19301 10345 ft 289 kts 199°
2026-04-17 17:37 43.61261 39.19003 10029 ft 284 kts 172°
2026-04-17 17:37 43.59435 39.19907 9753 ft 279 kts 151°
2026-04-17 17:37 43.57974 39.21632 9446 ft 278 kts 130°
2026-04-17 17:38 43.56879 39.23769 9180 ft 275 kts 126°
2026-04-17 17:38 43.55842 39.25933 9017 ft 262 kts 124°
2026-04-17 17:38 43.54881 39.27966 8867 ft 244 kts 125°
2026-04-17 17:38 43.53984 39.29862 8734 ft 229 kts 125°
2026-04-17 17:39 43.53098 39.31707 8203 ft 233 kts 125°
2026-04-17 17:39 43.52203 39.33539 7906 ft 228 kts 125°
2026-04-17 17:39 43.51326 39.35322 7646 ft 221 kts 126°
2026-04-17 17:39 43.50478 39.37054 7368 ft 215 kts 125°
2026-04-17 17:40 43.49663 39.38742 7176 ft 206 kts 124°
2026-04-17 17:40 43.48897 39.40356 6961 ft 198 kts 125°
2026-04-17 17:40 43.48157 39.41910 6754 ft 190 kts 125°
2026-04-17 17:40 43.47444 39.43398 6565 ft 184 kts 124°
2026-04-17 17:41 43.46741 39.44861 6393 ft 183 kts 125°
2026-04-17 17:41 43.46034 39.46328 6202 ft 185 kts 125°
2026-04-17 17:41 43.45321 39.47804 6009 ft 186 kts 125°
2026-04-17 17:41 43.44603 39.49287 5814 ft 186 kts 125°
2026-04-17 17:42 43.43893 39.50753 5606 ft 183 kts 125°
2026-04-17 17:42 43.43194 39.52194 5397 ft 179 kts 125°
2026-04-17 17:42 43.42503 39.53617 5224 ft 179 kts 124°
2026-04-17 17:42 43.41812 39.55038 5045 ft 179 kts 125°
2026-04-17 17:43 43.41127 39.56448 4866 ft 180 kts 125°
2026-04-17 17:43 43.40431 39.57877 4677 ft 180 kts 124°
2026-04-17 17:43 43.39739 39.59300 4468 ft 178 kts 124°
2026-04-17 17:43 43.39056 39.60701 4273 ft 174 kts 124°
2026-04-17 17:44 43.38391 39.62064 4086 ft 171 kts 124°
2026-04-17 17:44 43.37725 39.63428 3919 ft 172 kts 124°
2026-04-17 17:44 43.37056 39.64797 3758 ft 173 kts 125°
2026-04-17 17:44 43.36380 39.66181 3563 ft 176 kts 125°
2026-04-17 17:45 43.35801 39.67668 3363 ft 180 kts 102°
2026-04-17 17:45 43.36054 39.69324 3199 ft 182 kts 64°
2026-04-17 17:45 43.36620 39.70864 3169 ft 176 kts 68°
2026-04-17 17:45 43.37142 39.72440 2957 ft 184 kts 67°
2026-04-17 17:46 43.37679 39.74027 2749 ft 183 kts 66°
2026-04-17 17:46 43.38207 39.75562 2549 ft 174 kts 68°
2026-04-17 17:46 43.38703 39.77047 2301 ft 165 kts 67°
2026-04-17 17:46 43.39165 39.78426 2129 ft 154 kts 66°
2026-04-17 17:47 43.39606 39.79716 1878 ft 142 kts 65°
2026-04-17 17:47 43.40008 39.80906 1705 ft 134 kts 66°
2026-04-17 17:47 43.40396 39.82066 1555 ft 134 kts 65°
2026-04-17 17:47 43.40790 39.83224 1396 ft 134 kts 64°
2026-04-17 17:48 43.41184 39.84382 1218 ft 134 kts 65°
2026-04-17 17:48 43.41569 39.85536 1092 ft 133 kts 65°
2026-04-17 17:48 43.41830 39.86308 1000 ft 136 kts 64°